RADFXSAT (FOX-1B) (43017 NORAD) Tracking and Keplerian Element Data

This shows tracking and keplerian element data for the satellite.

Feedback or suggestion? Click here.




ElementValue
Catalog43017
NameRADFXSAT (FOX-1B)
Epoch Orbit33240
Epoch Day13.14710869
Epoch Year2024
RAAN254.336
Inclination97.6013
Eccentricity0.0223128
Argument of Perigee93.7999
Mean Anonmoly268.876
Mean Motion14.89822782
Decay Rate8.791E-05
L11 43017U 17073E 24013.14710869 .00008791 00000+0 57366-3 0 9993
L22 43017 97.6013 254.3360 0223128 93.7999 268.8760 14.89822782332400



Live tracking and technical data element details for RADFXSAT (FOX-1B) (NORAD 43017). RADFXSAT (FOX-1B) can be tracked NOW for your location showing map with azimuth and elevation plus other details from your city location.







IsCatalogInMostPopularTable: catalog: 43017, numindb: 1210
Update: records affected: 1



GetName: 43017 RADFXSAT (FOX-1B)

Hit Count: updated at: Sat, 20 Apr 2024 10:29:33 GMT